LiveATC.Net - Listen to live air traffic control over the Internet! Contact LiveATC.net for advertising information


ICAO: MMMX  IATA: MEX   Airport: Licenciado Benito Juarez International Airport
City: Mexico City
Country: Mexico   Continent: North America
MMMX METAR Weather: MMMX 240146Z 36008KT 12SM FEW020 SCT080 BKN200 18/11 A3028 NOSIG RMK 8/462
MMMX Flight Activity (FlightAware)
MMMX Approach
Feed Status: DOWN
Last heard on: 2014-09-23 20:20:03 (0 days 6 hours 3 minutes ago)
MMMX Approach Audio Archives
FacilityFrequency
Mexico City Approach121.200


NOTICE

Unauthorized use prohibited. See LiveATC.net Terms of Service


Find LiveATC Audio Streams


Airport/ARTCC Code

Frequency
(e.g., 124.400, 128.75)
Site-wide search

Browse LiveATC Feeds
LiveATC Coverage Map
Top 50 LiveATC Feeds
Bad Weather Areas

LiveATC FAQ
Offer a LiveATC Feed
Contact LiveATC.net
Press Inquiries

LiveATC on iPhone
LiveATC on Android

LiveATC Mobile
(Mobile browser)

ATC Audio Archives
Interesting Recordings

LiveATC Forums


Home Page
About LiveATC.net
Make a Donation
LiveATC Bookstore

Terms of Use
Privacy Policy

ATC/Radar Sites
U.S. ARTCC Freqs
Canadian Air Freqs

AIRMETs/SIGMETs

FAA Airport Status
Nat'l Airspace Status
Arrival Demand Charts


Server Software By:
Icecast.org
Liquidsoap

Please make a donation to help us keep growing!